User: anonymous   Login
Location: D?uga
(50.2667°N, 19.7833°E)
Time: 23:08:15
(UTC+00:00)
Language:

Cosmos 2278 - Orbit

View from above orbital plane
View from above orbital plane
View from above satellite
View from above satellite

Ground track
Ground track

The orbit data is extracted from the following two-line orbital elements,

1 23087U 94023A   24204.41363746  .00000564  00000-0  32071-3 0  9995
2 23087  71.0555 340.3187 0010118 225.7783 134.2509 14.14116643560642
Epoch (UTC): 22 July 2024 09:55:38
Eccentricity: 0.0010118
inclination: 71.0555°
perigee height: 838 km
apogee height: 852 km
right ascension of ascending node: 340.3187°
argument of perigee: 225.7783°
revolutions per day: 14.14116643
mean anomaly at epoch: 134.2509°
orbit number at epoch: 56064

The dashed part of the orbit path shows where the satellite is in the earth's shadow,  

DLR